CHOLLIMA-1 R/B, 58401

Orbit data source: Space-Track

CHOLLIMA-1 R/B, 58401 is space debris in SSO originally from a launch on Tue, 21 Nov 2023 UTC launched from the Yunsong, Dprk (YUN). Debris objects in space refer to the collection of defunct objects orbiting the Earth. Examples of debris include non-operational satellites, rocket bodies, and fragments generated from explosions, collisions, or faulty payload assembly.

Loading next visibility...
Identifier
58401, 2023-179B
Orbit
SSO
Country
Flag of KPKP / NKOR
Related business
Manufacturer
Choson
Mission
Spacecraft
Bus & Motor
Unknown
Mass
~50 kg wet, ~50 kg dry
Launch date (UTC)
2023-11-21 (3 years ago)
Launch vehicle
Unknown
Launch site
Yunsong, Dprk (YUN)
Object type
Payload
Rocket body
Debris
Shape & HBR
Cyl, 4.0 m
Radar Cross Section
17.530 m², Large (>1 m²)

Expand to show TLE details & history
Last TLE update: 2 days ago

TLE from 2 days ago
0 CHOLLIMA-1 R/B
1 58401U 23179B   26171.31522281  .00028809  00000-0  30968-3 0  9997
2 58401  97.3088  78.5094 0016463 134.9798 225.2799 15.63547030144996
Epoch: 2026-06-20T07:33Z
TLE epoch observation values (Epoch: 2026-06-20T07:33:55.250Z)
Latitude
-0.00001°
Longitude
56.49758°
Altitude
388.409 km
Speed
7.673 km/s
True Right ascension
05h 14m 02s
True Declination
0° 00' 00"
Sunlit
Object was in daylight at epoch
Visualization orbit readout
Latitude
Unknown
Longitude
Unknown
Altitude
Unknown
Speed
Unknown
Apparent Right ascension
Unknown
Apparent Declination
Unknown
Sunlit
N/A
Visualization observer readout
Local Sidereal Time
21:39:17
Azimuth
Unknown
Elevation
Unknown
Doppler factor
Unknown
Orbital elements
Apogee altitude
385.441 km
Perigee altitude
363.208 km
Semi-major axis
6,752.462 km
Eccentricity
0.00165
Inclination
97.3088°
RAAN
78.5094°
Arg. of periapsis
134.9798°
True anomaly
225.14605°
Mean anomaly
225.2799°
Eccentric anomaly
225.21295°
Mean motion
3.91156 °/min
Orbital period
92.03 mins
BSTAR
0.00030968
Loading maneuver chart data...
Computing Atmospheric mass density...
Loading historical data...
Loading historical data...
Loading historical data...
Loading historical data...
Loading historical data...
Loading historical data...
Loading historical data...
Other satellites on launch #179 in the year 2023 (2023-11-21 UTC)

Documentation

Showing up to 5 results
|